This is the latest recevied weather packets stored in our database for station/object KJ7IVE-13. If no packets are shown the sender has not sent any weather packets the latest 10 day(s).
| Time | Temp. | Humidity | Pressure | Rain* | Wind** | Luminosity | Snow |
|---|---|---|---|---|---|---|---|
| 1777893729 | 13.33° C | 10% | 1011.3 hPa | 0 mm | - | 0 W/m² | - |
| 1777893426 | 14.44° C | 10% | 1011.3 hPa | 0 mm | - | 0 W/m² | - |
| 1777893123 | 14.44° C | 10% | 1011.1 hPa | 0 mm | - | 0 W/m² | - |
| 1777892819 | 14.44° C | 10% | 1011.3 hPa | 0 mm | - | 0 W/m² | - |
| 1777892515 | 14.44° C | 10% | 1011.5 hPa | 0 mm | - | 0 W/m² | - |
| 1777892211 | 13.89° C | 10% | 1011.3 hPa | 0 mm | - | 0 W/m² | - |
| 1777890387 | 14.44° C | 10% | 1011.4 hPa | 0 mm | - | 0 W/m² | - |
| 1777890082 | 14.44° C | 10% | 1011.1 hPa | 0 mm | - | 0 W/m² | - |
| 1777889780 | 13.89° C | 10% | 1010.9 hPa | 0 mm | - | 0 W/m² | - |
| 1777889478 | 13.89° C | 10% | 1010.9 hPa | 0 mm | - | 0 W/m² | - |
| 1777889175 | 13.89° C | 10% | 1011 hPa | 0 mm | - | 0 W/m² | - |
| 1777888569 | 13.33° C | 10% | 1011.1 hPa | 0 mm | - | 0 W/m² | - |
| 1777888265 | 13.33° C | 10% | 1010.7 hPa | 0 mm | - | 0 W/m² | - |
| 1777887963 | 12.78° C | 10% | 1010.7 hPa | 0 mm | - | 0 W/m² | - |
| 1777887659 | 12.22° C | 10% | 1010.7 hPa | 0 mm | - | 0 W/m² | - |
| 1777887355 | 11.67° C | 10% | 1010.7 hPa | 0 mm | - | 0 W/m² | - |
| 1777887051 | 12.22° C | 10% | 1010.8 hPa | 0 mm | - | 0 W/m² | - |
| 1777886747 | 12.22° C | 10% | 1010.1 hPa | 0 mm | - | 0 W/m² | - |
| 1777886444 | 12.78° C | 10% | 1010.7 hPa | 0 mm | - | 0 W/m² | - |
| 1777886142 | 12.78° C | 10% | 1010.5 hPa | 0 mm | - | 0 W/m² | - |
| 1777885839 | 13.89° C | 10% | 1010.3 hPa | 0 mm | - | 0 W/m² | - |
| 1777885538 | 13.89° C | 10% | 1009.9 hPa | 0 mm | - | 0 W/m² | - |
| 1777885236 | 14.44° C | 10% | 1009.7 hPa | 0 mm | - | 0 W/m² | - |
| 1777884934 | 14.44° C | 10% | 1010 hPa | 0 mm | - | 0 W/m² | - |
| 1777884629 | 13.33° C | 10% | 1010 hPa | 0 mm | - | 0 W/m² | - |
* Rain latest hour (hover to see other rain measurements)
** Current wind speed in m/s (hover to see current wind gust speed)